Weather reports worldwide

Advertisment
Kempten, Germany (10946): temperature & dewpoint: 18.01.2020 02:00:00 - 24.01.2020 02:00:00 (CET)Kempten, Germany (10946): temperature 5cm & temperature -5cm: 18.01.2020 02:00:00 - 24.01.2020 02:00:00 (CET)Kempten, Germany (10946): temperature -20cm & temperature -100cm: 18.01.2020 02:00:00 - 24.01.2020 02:00:00 (CET)Kempten, Germany (10946): wind speed & gusts: 18.01.2020 02:00:00 - 24.01.2020 02:00:00 (CET)Kempten, Germany (10946): wind direction: 18.01.2020 02:00:00 - 24.01.2020 02:00:00 (CET)Kempten, Germany (10946): reduced air pressure: 18.01.2020 02:00:00 - 24.01.2020 02:00:00 (CET)Kempten, Germany (10946): visibility: 18.01.2020 02:00:00 - 24.01.2020 02:00:00 (CET)Kempten, Germany (10946): sunshine duration: 18.01.2020 02:00:00 - 24.01.2020 02:00:00 (CET)Kempten, Germany (10946): precipitation: 18.01.2020 02:00:00 - 24.01.2020 02:00:00 (CET)
Date & Time tt [°C] td [°C] tt 5cm [°C] tt -5cm [°C] tt -20cm [°C] tt -100cm [°C] ff [km/h] ff [kn] fx [km/h] fx [kn] dd ppp [hPa] vv [km] sd [min] rr [mm]
24.01.2020 02:00:00 -5,3 -6,1 -6,0 -0,7 0,5 4,8 6 3 16 8 SSE 1029,4 4,3 0 0,0
24.01.2020 01:00:00 -5,2 -6,0 -4,5 -0,6 0,5 4,8 5 3 8 5 SSE 1030,3 1,1 0 0,0
24.01.2020 00:00:00 -5,1 -5,8 -4,7 -0,6 0,5 4,8 4 2 9 5 S 1030,2 0,8 0 0,0
23.01.2020 23:00:00 -4,8 -5,8 -4,4 -0,5 0,5 4,8 4 2 6 4 E 1030,1 4,3 0 0,0
23.01.2020 22:00:00 -5,5 -6,9 -5,1 -0,4 0,5 4,8 4 2 6 4 E 1030,0 6 0 0,0
23.01.2020 21:00:00 -6,3 -7,7 -7,3 -0,2 0,5 4,8 2 1 7 4 E 1030,2 7 0 0,0
23.01.2020 20:00:00 -5,6 -6,9 -7,1 -0,2 0,5 4,8 4 2 7 4 E 1030,0 7 0 0,0
23.01.2020 19:00:00 -5,0 -6,3 -7,0 -0,2 0,5 4,8 1 1 3 2 NE 1029,6 7 0 0,0
23.01.2020 18:00:00 -4,2 -5,6 -5,3 -0,2 0,5 4,8 1 1 9 5 ENE 1029,5 10 0 0,0
23.01.2020 17:00:00 -2,9 -5,1 -4,2 -0,2 0,5 4,8 5 3 15 8 E 1028,7 12 13 0,0
23.01.2020 16:00:00 -2,1 -4,8 -1,8 -0,2 0,5 4,8 9 5 19 10 NE 1029,1 9 60 0,0
23.01.2020 15:00:00 -1,2 -4,4 -0,1 -0,3 0,5 4,8 12 6 20 11 NE 1029,2 16 60 0,0
23.01.2020 14:00:00 -1,2 -4,7 0,7 -0,3 0,5 4,8 7 4 14 8 NE 1030,2 16 60 0,0
23.01.2020 13:00:00 -1,3 -4,9 0,2 -0,4 0,5 4,8 4 2 11 6 ENE 1031,1 12 60 0,0
23.01.2020 12:00:00 -2,2 -5,2 -0,7 -0,6 0,5 4,8 5 3 11 6 NNE 1032,3 13 44 0,0
23.01.2020 11:00:00 -3,0 -5,6 -1,6 -1,0 0,5 4,8 4 2 7 4 SSE 1033,2 11 60 0,0
23.01.2020 10:00:00 -4,4 -6,0 -5,5 -1,5 0,6 4,8 1 1 5 3 S 1033,9 11 60 0,0
23.01.2020 09:00:00 -7,3 -8,6 -8,5 -1,5 0,6 4,9 3 1 6 3 E 1035,1 9 18 0,0
23.01.2020 08:00:00 -7,8 -9,0 -8,9 -1,3 0,6 4,9 4 2 7 4 E 1035,3 7 0 0,0
23.01.2020 07:00:00 -6,9 -8,2 -8,6 -0,9 0,6 4,9 2 1 5 3 ESE 1035,1 9 0 0,0
23.01.2020 06:00:00 -6,1 -7,1 -5,8 -0,6 0,6 4,9 6 3 10 5 NE 1035,4 5 0 0,0
23.01.2020 05:00:00 -5,2 -5,9 -4,7 -0,5 0,6 4,9 4 2 14 7 SE 1035,6 1,1 0 0,0
23.01.2020 04:00:00 -5,5 -6,6 -5,3 -0,4 0,6 4,9 4 2 9 5 SE 1036,3 8 0 0,0
23.01.2020 03:00:00 -4,5 -5,5 -4,9 -0,3 0,6 4,9 3 1 6 4 SE 1036,6 7 0 0,0
23.01.2020 02:00:00 -4,4 -5,3 -4,2 -0,2 0,6 4,9 3 2 13 7 ENE 1037,1 5 0 0,0
23.01.2020 01:00:00 -4,9 -5,9 -4,7 -0,1 0,6 4,9 6 3 14 7 N 1037,6 6 0 0,0
23.01.2020 00:00:00 -4,1 -4,8 -4,0 -0,1 0,6 4,9 5 3 11 6 N 1037,1 1,8 0 0,0
22.01.2020 23:00:00 -3,8 -4,3 -4,0 -0,1 0,6 4,9 5 3 16 9 E 1036,5 1,1 0 0,0
22.01.2020 22:00:00 -3,5 -4,0 -3,3 -0,1 0,6 4,9 7 4 14 7 S 1036,4 0,3 0 0,0
22.01.2020 21:00:00 -3,5 -3,9 -3,1 -0,1 0,6 4,9 4 2 9 5 SSE 1036,9 0,3 0 0,0
22.01.2020 20:00:00 -3,1 -3,4 -3,0 -0,1 0,6 4,9 5 3 12 7 NNW 1036,5 0,5 0 0,0
22.01.2020 19:00:00 -2,4 -3,7 -3,9 -0,1 0,6 4,9 6 4 13 7 NNW 1035,5 4,6 0 0,0
22.01.2020 18:00:00 -0,9 -2,8 -3,6 -0,1 0,6 4,9 2 1 15 8 NNE 1034,6 6 0 0,0
22.01.2020 17:00:00 2,1 -1,7 -0,3 -0,1 0,6 4,9 8 5 16 9 NW 1033,4 12 46 0,0
22.01.2020 16:00:00 5,7 -3,3 5,4 -0,1 0,6 4,9 2 1 9 5 SE 1031,7 13 60 0,0
22.01.2020 15:00:00 5,4 -2,1 5,2 -0,2 0,6 4,9 3 2 7 4 SSW 1032,1 10 60 0,0
22.01.2020 14:00:00 3,1 -2,8 4,1 -0,3 0,6 4,9 5 3 14 8 NW 1033,5 13 60 0,0
22.01.2020 13:00:00 3,3 -3,0 4,0 -0,5 0,7 4,9 4 2 9 5 NNW 1033,8 15 60 0,0
22.01.2020 12:00:00 0,2 -3,6 0,2 -0,7 0,7 4,9 7 4 16 8 S 1035,3 12 60 0,0
22.01.2020 11:00:00 -2,4 -5,8 -2,2 -1,0 0,7 4,9 3 2 6 4 S 1037,1 11 60 0,0
22.01.2020 10:00:00 -5,0 -7,7 -5,3 -1,4 0,7 4,9 3 1 10 6 N 1038,4 7 60 0,0
22.01.2020 09:00:00 -6,7 -8,4 -7,6 -1,5 0,7 4,9 2 1 10 5 N 1038,0 6 17 0,0
22.01.2020 08:00:00 -7,5 -9,0 -9,0 -1,4 0,8 4,9 6 3 11 6 N 1037,7 9 0 0,0
22.01.2020 07:00:00 -7,8 -9,0 -9,5 -1,2 0,8 4,9 2 1 11 6 NW 1038,0 10 0 0,0
22.01.2020 06:00:00 -7,5 -8,8 -8,8 -1,1 0,8 4,9 9 5 13 7 ESE 1037,8 7 0 0,0
22.01.2020 05:00:00 -8,3 -9,6 -9,9 -0,9 0,9 4,9 2 1 6 4 SSW 1039,0 6 0 0,0
22.01.2020 04:00:00 -7,2 -8,3 -9,1 -0,7 0,9 4,9 3 2 7 4 NNW 1038,8 7 0 0,0
22.01.2020 03:00:00 -7,3 -8,6 -8,5 -0,5 0,9 4,9 3 1 4 2 ENE 1039,3 6 0 0,0
22.01.2020 02:00:00 -7,3 -8,7 -9,0 -0,3 0,9 4,9 2 1 5 3 SSE 1039,6 7 0 0,0
22.01.2020 01:00:00 -6,8 -8,2 -8,4 -0,1 0,9 4,9 0 0 6 3 N 1040,1 7 0 0,0
22.01.2020 00:00:00 -6,0 -7,0 -7,6 0,0 1,0 5,0 0 0 5 3 N 1039,8 7 0 0,0
21.01.2020 23:00:00 -5,5 -6,8 -7,0 0,0 1,0 5,0 2 1 7 4 ENE 1039,9 7 0 0,0
21.01.2020 22:00:00 -5,2 -6,7 -7,3 0,1 1,0 5,0 2 1 6 3 ESE 1039,9 6 0 0,0
21.01.2020 21:00:00 -4,7 -6,3 -6,8 0,1 1,0 5,0 2 1 10 6 N 1040,2 7 0 0,0
21.01.2020 20:00:00 -3,9 -5,9 -6,1 0,0 1,0 5,0 4 2 6 3 E 1040,1 7 0 0,0
21.01.2020 19:00:00 -2,5 -4,6 -4,4 0,0 1,0 5,0 4 2 8 4 E 1039,7 8 0 0,0
21.01.2020 18:00:00 -1,7 -4,3 -4,6 0,0 1,0 5,0 2 1 10 5 E 1039,7 10 0 0,0
21.01.2020 17:00:00 0,4 -3,9 -1,3 0,0 1,0 5,0 4 2 11 6 ENE 1039,0 16 30 0,0
21.01.2020 16:00:00 2,1 -3,8 0,9 0,0 1,0 5,0 4 2 10 5 ENE 1038,9 21 51 0,0
21.01.2020 15:00:00 2,9 -4,8 4,0 0,0 1,0 5,0 3 2 9 5 N 1039,4 25 60 0,0
21.01.2020 14:00:00 1,9 -5,1 3,2 0,0 1,0 5,0 5 3 10 5 N 1040,0 36 60 0,0
21.01.2020 13:00:00 0,6 -5,7 1,8 0,0 1,0 5,0 4 2 10 5 NW 1041,1 15 60 0,0
21.01.2020 12:00:00 -0,6 -5,8 -0,9 -0,1 1,0 5,0 4 2 8 4 N 1042,3 16 60 0,0
21.01.2020 11:00:00 -2,3 -6,7 -3,5 -0,1 1,1 5,0 2 1 10 6 WSW 1043,0 35 60 0,0
21.01.2020 10:00:00 -5,1 -8,2 -5,5 0,0 1,1 5,0 5 3 11 6 S 1044,2 16 60 0,0
21.01.2020 09:00:00 -7,3 -9,2 -8,5 0,0 1,1 5,0 5 3 9 5 ESE 1045,0 17 17 0,0
21.01.2020 08:00:00 -8,9 -10,4 -10,7 0,1 1,2 5,0 5 3 8 4 ESE 1045,5 18 0 0,0
21.01.2020 07:00:00 -9,2 -10,7 -10,8 0,1 1,2 5,0 5 3 6 4 ESE 1045,7 13 0 0,0
21.01.2020 06:00:00 -8,8 -10,0 -10,6 0,2 1,2 5,0 2 1 12 6 SE 1045,7 9 0 0,0
21.01.2020 05:00:00 -8,1 -9,6 -9,5 0,2 1,2 5,0 6 4 10 5 E 1045,3 13 0 0,0
21.01.2020 04:00:00 -7,3 -8,9 -8,8 0,3 1,2 5,0 6 3 9 5 ESE 1044,9 19 0 0,0
21.01.2020 03:00:00 -7,5 -9,1 -9,3 0,3 1,2 5,0 3 2 8 5 SE 1045,7 13 0 0,0
21.01.2020 02:00:00 -7,0 -8,3 -9,3 0,3 1,3 5,0 3 2 5 3 ESE 1045,5 10 0 0,0
21.01.2020 01:00:00 -6,5 -7,6 -8,6 0,4 1,3 5,0 3 2 7 4 SE 1045,4 7 0 0,0
21.01.2020 00:00:00 -5,2 -6,6 -7,9 0,4 1,3 5,0 3 1 6 3 ESE 1044,9 7 0 0,0
20.01.2020 23:00:00 -4,1 -5,4 -6,3 0,4 1,3 5,0 3 2 11 6 SSE 1044,3 6 0 0,0
20.01.2020 22:00:00 -2,5 -4,4 -4,5 0,4 1,3 5,0 3 2 16 9 ENE 1044,1 8 0 0,0
20.01.2020 21:00:00 -1,7 -4,2 -2,5 0,4 1,3 5,0 6 3 24 13 E 1044,0 10 0 0,0
20.01.2020 20:00:00 -1,1 -4,0 -1,8 0,4 1,3 5,0 9 5 22 12 E 1044,1 13 0 0,0
20.01.2020 19:00:00 -1,1 -4,1 -1,7 0,4 1,3 5,0 9 5 28 15 E 1044,3 14 0 0,0
20.01.2020 18:00:00 -0,9 -3,8 -1,7 0,4 1,3 5,0 9 5 27 14 E 1044,1 13 0 0,0
20.01.2020 17:00:00 -0,8 -4,1 -1,6 0,4 1,3 5,0 10 5 24 13 E 1043,6 18 0 0,0
20.01.2020 16:00:00 -0,3 -3,6 -1,3 0,4 1,4 5,0 9 5 30 16 E 1043,8 16 26 0,0
20.01.2020 15:00:00 0,1 -3,5 0,3 0,4 1,4 5,0 13 7 25 14 E 1044,1 16 34 0,0
20.01.2020 14:00:00 0,4 -3,5 1,7 0,5 1,4 5,0 10 6 22 12 ENE 1044,1 18 51 0,0
20.01.2020 13:00:00 -0,5 -3,7 1,4 0,5 1,4 5,0 8 4 18 10 NE 1044,9 12 37 0,0
20.01.2020 12:00:00 -1,5 -4,5 -0,5 0,5 1,4 5,0 9 5 24 13 ENE 1045,8 10 60 0,0
20.01.2020 11:00:00 -1,4 -4,2 -0,6 0,5 1,4 5,0 9 5 19 10 E 1046,3 10 49 0,0
20.01.2020 10:00:00 -2,6 -5,0 -1,5 0,5 1,4 5,0 3 2 9 5 NNE 1046,7 11 24 0,0
20.01.2020 09:00:00 -7,1 -8,4 -6,7 0,5 1,4 5,0 0 0 5 3 N 1048,3 9 6 0,0
20.01.2020 08:00:00 -8,4 -9,9 -10,2 0,5 1,5 5,0 3 2 6 3 SE 1048,2 9 0 0,0
20.01.2020 07:00:00 -8,0 -9,3 -10,3 0,5 1,5 5,0 3 2 7 4 E 1047,3 9 0 0,0
20.01.2020 06:00:00 -8,1 -9,8 -10,3 0,5 1,5 5,0 3 2 7 4 E 1046,6 10 0 0,0
20.01.2020 05:00:00 -7,8 -9,3 -10,1 0,5 1,5 5,0 5 3 12 6 ESE 1046,4 8 0 0,0
20.01.2020 04:00:00 -6,1 -7,3 -8,4 0,5 1,5 5,0 3 1 9 5 E 1045,9 6 0 0,0
20.01.2020 03:00:00 -4,6 -5,5 -6,6 0,6 1,6 5,0 3 2 10 5 N 1045,9 6 0 0,0
20.01.2020 02:00:00 -5,9 -7,2 -6,2 0,6 1,6 5,0 8 4 10 5 E 1045,7 6 0 0,0
20.01.2020 01:00:00 -5,3 -6,2 -9,0 0,6 1,6 5,0 3 2 9 5 N 1045,1 6 0 0,0
20.01.2020 00:00:00 -5,0 -6,3 -8,0 0,6 1,7 5,0 2 1 4 2 NE 1044,9 7 0 0,0
19.01.2020 23:00:00 -3,2 -4,3 -5,6 0,7 1,7 5,0 3 2 8 5 E 1043,8 7 0 0,0
19.01.2020 22:00:00 -3,0 -4,1 -7,5 0,7 1,8 5,0 5 3 12 7 NNE 1043,1 7 0 0,0
19.01.2020 21:00:00 -1,8 -3,1 -4,6 0,8 1,8 5,0 4 2 18 10 NE 1042,0 9 0 0,3
19.01.2020 20:00:00 -0,9 -2,9 -1,3 0,9 1,9 5,0 5 3 10 6 ENE 1041,1 4,9 0 0,0
19.01.2020 19:00:00 -0,5 -2,5 -1,1 1,0 1,9 5,0 4 2 13 7 ENE 1040,2 10 0 0,0
19.01.2020 18:00:00 -0,2 -2,5 -0,8 1,3 1,9 5,0 4 2 14 8 NE 1039,0 12 0 0,0
19.01.2020 17:00:00 0,1 -2,6 -0,1 1,8 1,8 5,0 9 5 16 9 N 1038,1 14 0 0,0
19.01.2020 16:00:00 1,2 -4,2 1,6 2,1 1,7 5,0 4 2 10 6 E 1036,8 26 44 0,0
19.01.2020 15:00:00 0,6 -3,6 -0,6 1,8 1,6 5,0 5 3 14 7 N 1036,4 22 0 0,0
19.01.2020 14:00:00 0,6 -3,7 1,1 1,4 1,6 5,0 6 4 12 7 E 1035,9 19 24 0,0
19.01.2020 13:00:00 0,4 -2,6 1,5 0,7 1,6 5,0 5 3 11 6 N 1035,9 13 4 0,0
19.01.2020 12:00:00 0,2 -1,8 0,7 0,6 1,6 5,0 6 3 11 6 NW 1036,0 9 0 0,0
19.01.2020 11:00:00 -0,3 -1,5 -0,5 0,6 1,6 5,0 3 1 7 4 NW 1035,7 3,9 0 0,3
19.01.2020 10:00:00 -0,8 -1,9 -0,7 0,6 1,6 5,0 2 1 5 3 NE 1035,0 4,8 1 0,0
19.01.2020 09:00:00 -1,6 -2,5 -1,8 0,6 1,7 5,0 4 2 7 4 E 1034,5 4,5 0 0,0
19.01.2020 08:00:00 -1,4 -2,4 -2,7 0,6 1,7 5,0 2 1 7 4 ESE 1033,5 4,3 0 0,0
19.01.2020 07:00:00 -0,7 -1,5 -1,6 0,6 1,7 5,0 3 2 8 4 NW 1033,0 7 0 0,0
19.01.2020 06:00:00 -0,8 -1,7 -2,9 0,7 1,8 5,0 3 2 12 6 NW 1032,3 10 0 0,0
19.01.2020 05:00:00 -0,2 -1,4 -0,7 0,7 1,8 5,0 4 2 7 4 NNW 1031,7 17 0 0,0
19.01.2020 04:00:00 -0,6 -1,1 -1,1 0,7 1,9 5,0 3 2 5 3 NNW 1031,4 9 0 0,0
19.01.2020 03:00:00 -0,3 -1,2 -1,8 0,8 1,9 5,0 0 0 5 3 N 1031,1 6 0 0,0
19.01.2020 02:00:00 -0,1 -1,1 -1,1 0,8 2,0 5,0 2 1 4 2 E 1030,6 11 0 0,0
19.01.2020 01:00:00 0,0 -1,0 -0,7 0,8 2,0 5,0 0 0 4 2 N 1030,2 13 0 0,0
19.01.2020 00:00:00 0,1 -1,4 -0,5 0,9 2,1 5,0 2 1 4 2 E 1030,1 21 0 0,0
18.01.2020 23:00:00 0,4 -1,1 -0,8 0,9 2,2 5,0 2 1 7 4 N 1029,9 20 0 0,0
18.01.2020 22:00:00 0,2 -1,2 -0,7 1,0 2,3 5,0 4 2 9 5 SE 1029,9 20 0 0,0
18.01.2020 21:00:00 0,3 -1,3 -0,8 1,1 2,4 5,0 4 2 16 9 ESE 1029,9 29 0 0,0
18.01.2020 20:00:00 0,7 -1,3 -0,5 1,2 2,5 5,0 9 5 16 9 SSW 1029,6 36 0 0,0
18.01.2020 19:00:00 -0,2 -1,6 -1,3 1,4 2,6 5,0 9 5 15 8 SSW 1029,8 34 0 0,0
18.01.2020 18:00:00 0,3 -1,4 -1,5 1,9 2,7 4,9 7 4 15 8 SSW 1029,4 35 0 0,0
18.01.2020 17:00:00 1,1 -1,6 -0,2 2,9 2,6 4,9 6 4 21 12 S 1029,0 40 0 0,0
18.01.2020 16:00:00 2,7 -1,4 1,5 3,9 2,5 4,9 9 5 21 11 SW 1027,9 43 31 0,0
18.01.2020 15:00:00 2,9 -0,6 2,3 3,6 2,3 4,9 6 3 20 11 SW 1028,0 48 1 0,0
18.01.2020 14:00:00 3,3 0,0 3,2 3,5 2,1 4,9 6 3 16 8 SW 1028,0 50 5 0,0
18.01.2020 13:00:00 2,9 -0,2 2,6 2,8 2,0 4,9 7 4 23 13 WSW 1028,7 46 0 0,0
18.01.2020 12:00:00 2,7 0,0 2,2 1,8 2,0 4,9 8 4 16 8 SW 1029,1 32 0 0,0
18.01.2020 11:00:00 1,9 0,7 1,2 1,1 2,0 4,9 8 4 16 9 SSW 1029,6 23 0 0,0
18.01.2020 10:00:00 1,0 0,4 0,1 1,0 2,1 4,9 10 5 16 9 S 1029,6 16 0 0,1
18.01.2020 09:00:00 0,4 0,0 0,0 1,0 2,1 4,9 6 3 12 7 S 1029,7 8 0 0,2
18.01.2020 08:00:00 0,3 -0,1 0,0 1,2 2,2 4,9 4 2 18 10 ESE 1029,7 3,1 0 2,0
18.01.2020 07:00:00 1,0 0,6 0,5 1,5 2,3 4,9 4 2 13 7 SSW 1028,9 9 0 0,2
18.01.2020 06:00:00 0,8 0,2 0,1 1,6 2,3 4,9 4 2 9 5 S 1028,5 13 0 1,1
18.01.2020 05:00:00 1,4 0,5 0,7 2,0 2,4 4,9 4 2 17 9 SSW 1028,1 9 0 0,8
18.01.2020 04:00:00 1,9 0,9 1,4 2,2 2,4 4,9 9 5 22 12 SSW 1027,5 17 0 0,4
18.01.2020 03:00:00 2,3 1,3 1,8 2,3 2,3 4,9 6 3 16 9 S 1026,6 11 0 0,8
18.01.2020 02:00:00 3,0 1,6 2,2 2,4 2,3 4,9 5 3 19 11 SSW 1025,7 25 0 0,1

tt = temperature
td = dewpoint
tt 5cm = temperature 5cm
tt -5cm = temperature -5cm
tt -20cm = temperature -20cm
tt -100cm = temperature -100cm
ff = wind speed
fx = gusts
dd = wind direction
ppp = reduced air pressure
vv = visibility
sd = sunshine duration
rr = precipitation

Next stations